Location: Aranbee
(34.0885°N, 118.2342°W)
Time: 16:08:14
(UTC+00:00)

Courier 1B - Visible Passes

Search period start: 26 November 2020 00:00
Search period end: 06 December 2020 00:00
Orbit: 962 x 1209 km, 28.3° (Epoch: 25 November)

Date Brightness Start Highest point End Pass type
(mag) Time Alt. Az. Time Alt. Az. Time Alt. Az.
26 Nov 9.3 11:15:00 27° SSE 11:15:00 27° SSE 11:18:44 10° SE visible
26 Nov 9.4 13:01:54 16° WSW 13:05:09 20° SSW 13:10:31 10° SSE visible
27 Nov 10.3 10:24:41 11° ESE 10:24:41 11° ESE 10:24:59 10° ESE visible
27 Nov 9.1 12:11:35 25° SSW 12:11:35 25° SSW 12:17:32 10° SSE visible
28 Nov 9.6 11:21:17 21° SSE 11:21:17 21° SSE 11:24:14 10° SE visible
28 Nov 9.8 13:08:55 10° SW 13:11:08 11° SSW 13:13:22 10° SSW visible
29 Nov 9.6 12:17:54 16° SSW 12:17:54 16° SSW 12:21:44 10° S visible
30 Nov 9.8 03:44:24 10° SSW 03:45:16 13° SSW 03:45:16 13° SSW visible
30 Nov 9.9 11:27:38 14° S 11:27:38 14° S 11:29:03 10° SSE visible
01 Dec 9.4 02:52:02 10° S 02:54:59 15° SSE 02:54:59 15° SSE visible
02 Dec 9.6 02:01:31 10° SSE 02:01:57 10° SSE 02:02:23 10° SE visible
02 Dec 9.5 03:49:33 10° SW 03:51:36 19° SSW 03:51:36 19° SSW visible
03 Dec 8.9 02:56:31 10° SSW 03:01:18 24° SSE 03:01:18 24° SSE visible
04 Dec 9.2 02:03:44 10° SSW 02:08:00 18° SSE 02:10:58 14° ESE visible
04 Dec 9.3 03:55:19 10° SW 03:57:52 23° SW 03:57:52 23° SW visible
05 Dec 9.5 01:11:27 10° S 01:14:28 14° SSE 01:17:29 10° ESE visible
05 Dec 8.4 03:01:58 10° SW 03:07:32 34° SSE 03:07:32 34° SSE visible
